{"data":{"norad_id":56193,"epoch":"2026-05-25T02:42:14.794272Z","epoch_age_seconds":58593,"freshness":"FRESH","line1":"1 56193U 23054R   26145.11267123  .00005066  00000+0  19341-3 0  9996","line2":"2 56193  97.2760  31.2927 0003816 111.1162 249.0486 15.27077782173507","mean_motion":15.27077782,"eccentricity":0.0003816,"inclination_deg":97.276,"raan_deg":31.2927,"arg_perigee_deg":111.1162,"mean_anomaly_deg":249.0486,"bstar":0.00019341,"rev_number":17350,"period_min":94.297750708811,"perigee_km":481.93452690011,"apogee_km":487.17213215961,"semimajor_km":6862.6903295299,"source":"CELESTRAK","updated_at":"2026-05-25T13:38:24.930980Z"}}